Terug naar catalogus

TIANMU-1 08

ActiefWeerSSO
NORAD 57400·PAYLOAD·🇨🇳 China

Gelanceerd Jul 20, 2023 vanaf Jiuquan Satellite Launch Center

Loading…

Volgende Passages (komende 24 uur)

TLE

VersSource: Space-Track

Epoch: Sep 14, 2026, 21:54 UTC

1 57400U 23101B   26257.91268767  .00005371  00000-0  18351-3 0  9998
2 57400  97.2494 306.2923 0004764 142.4025 217.7550 15.30698964175367

Volg TIANMU-1 08 in realtime met AllMySat

Download on the App Store